Camp Point, IL

4:50 AM CST on December 04, 2016 (GMT -0600)
Quincy Regional-Baldwin

Weather History for KUIN - July, 2014

Change the Weather History Date:

Saturday, July 12, 2014

  Actual Average Record
Temperature  
Mean Temperature 83 °F 76 °F  
Max Temperature 89 °F 86 °F 109 °F (1936)
Min Temperature 76 °F 67 °F 54 °F (1959)
Degree Days  
Heating Degree Days 0 0  
Month to date heating degree days 1 0  
Since 1 June heating degree days 5 16  
Since 1 July heating degree days 1 0  
Cooling Degree Days 18 11  
Month to date cooling degree days 90 132  
Year to date cooling degree days 500 445  
Since 1 June cooling degree days 357 359  
Growing Degree Days 33 (Base 50)    
Moisture  
Dew Point 72 °F    
Average Humidity 72    
Maximum Humidity 88    
Minimum Humidity 56    
Precipitation  
Precipitation 0.00 in 0.14 in 2.10 in (1960)
Month to date precipitation 1.44 1.60  
Year to date precipitation 18.00 19.68  
Sea Level Pressure  
Sea Level Pressure 29.99 in    
Wind  
Wind Speed 10 mph (SSW)    
Max Wind Speed 17 mph    
Max Gust Speed 22 mph    
Visibility 10 miles    
Events      
T = Trace of Precipitation, MM = Missing Value Source: NWS Daily Summary

Daily Weather History Graph

Daily Weather History Graph

Search for Another Location

Airport or City:

Trip Planner

Search our weather history database for the weather conditions in past years. The results will help you decide how hot, cold, wet, or windy it might be!

Date:

Astronomy

Jul. 12, 2014 Rise Set
Actual Time 5:46 AM CDT 8:33 PM CDT
Civil Twilight 5:14 AM CDT 9:05 PM CDT
Nautical Twilight 4:34 AM CDT 9:46 PM CDT
Astronomical Twilight 3:48 AM CDT 10:31 PM CDT
Moon 8:36 PM CDT (7/12) 6:06 AM CDT (7/12)
Length of Visible Light 15h 51m
Length of Day
14h 47m
Full, 100% of the Moon is Illuminated
Jul 12
Full
Jul 18
Last Quarter
Jul 26
New
Aug 3
First Quarter
Aug 10
Full

Hourly Weather History & Observations

Time (CDT) Temp. Heat Index Dew Point Humidity Pressure Visibility Wind Dir Wind Speed Gust Speed Precip Events Conditions
12:54 AM 77.0 °F - 71.1 °F 82% 30.05 in 10.0 mi South 4.6 mph - N/A   Clear
1:54 AM 77.0 °F - 72.0 °F 84% 30.03 in 10.0 mi South 5.8 mph - N/A   Clear
2:54 AM 77.0 °F - 72.0 °F 84% 30.02 in 10.0 mi South 8.1 mph - N/A   Clear
3:54 AM 77.0 °F - 73.0 °F 88% 30.01 in 10.0 mi SSW 9.2 mph - N/A   Clear
4:54 AM 77.0 °F - 72.0 °F 84% 30.02 in 10.0 mi SW 8.1 mph - N/A   Clear
5:54 AM 77.0 °F - 72.0 °F 84% 30.03 in 10.0 mi SSW 10.4 mph - N/A   Clear
6:54 AM 77.0 °F - 72.0 °F 84% 30.04 in 10.0 mi SW 8.1 mph - N/A   Clear
7:54 AM 80.1 °F 84.2 °F 73.0 °F 79% 30.04 in 10.0 mi WSW 8.1 mph - N/A   Clear
8:54 AM 82.0 °F 86.7 °F 72.0 °F 71% 30.05 in 10.0 mi West 10.4 mph - N/A   Clear
9:54 AM 82.9 °F 88.0 °F 72.0 °F 69% 30.04 in 10.0 mi SW 9.2 mph - N/A   Clear
10:54 AM 81.0 °F 84.9 °F 71.1 °F 72% 30.04 in 10.0 mi WSW 8.1 mph - N/A   Clear
11:54 AM 82.9 °F 87.5 °F 71.1 °F 67% 30.04 in 10.0 mi SW 8.1 mph - N/A   Clear
12:54 PM 84.0 °F 89.6 °F 72.0 °F 67% 30.03 in 10.0 mi SSW 10.4 mph - N/A   Clear
1:54 PM 86.0 °F 92.2 °F 72.0 °F 63% 30.01 in 10.0 mi SSW 9.2 mph - N/A   Clear
2:54 PM 87.1 °F 94.5 °F 73.0 °F 63% 29.99 in 10.0 mi SSW 10.4 mph - N/A   Clear
3:54 PM 89.1 °F 97.0 °F 73.0 °F 59% 29.98 in 10.0 mi SSW 16.1 mph - N/A   Clear
4:54 PM 89.1 °F 96.0 °F 72.0 °F 57% 29.97 in 10.0 mi SSW 16.1 mph 21.9 mph N/A   Clear
5:54 PM 88.0 °F 94.7 °F 72.0 °F 59% 29.94 in 10.0 mi SSW 12.7 mph - N/A   Clear
6:54 PM 87.1 °F 94.5 °F 73.0 °F 63% 29.91 in 10.0 mi South 11.5 mph - N/A   Clear
7:54 PM 84.0 °F 90.2 °F 73.0 °F 69% 29.92 in 10.0 mi SSW 10.4 mph - N/A   Clear
8:54 PM 82.0 °F 86.7 °F 72.0 °F 71% 29.91 in 10.0 mi SSW 11.5 mph - N/A   Clear
9:54 PM 82.0 °F 86.3 °F 71.1 °F 69% 29.94 in 10.0 mi SW 9.2 mph - N/A   Clear
10:54 PM 81.0 °F 84.4 °F 70.0 °F 69% 29.94 in 10.0 mi SSW 10.4 mph - N/A   Clear
11:54 PM 81.0 °F 84.1 °F 69.1 °F 67% 29.90 in 10.0 mi SW 11.5 mph - N/A   Clear